Victoria, British Columbia

7:57 PM PST on February 19, 2017 (GMT -0800)
Victoria International

Weather History for CYYJ - June, 2013

Change the Weather History Date:

Thursday, June 13, 2013

  Actual Average Record
Temperature  
Mean Temperature 58 °F -  
Max Temperature 68 °F 69 °F 86 °F (2002)
Min Temperature 48 °F 50 °F 44 °F (2001)
Degree Days  
Heating Degree Days 7    
Growing Degree Days 8 (Base 50)    
Moisture  
Dew Point 46 °F    
Average Humidity 65    
Maximum Humidity 82    
Minimum Humidity 39    
Precipitation  
Precipitation 0.00 in 0.03 in - ()
Sea Level Pressure  
Sea Level Pressure 30.17 in    
Wind  
Wind Speed 7 mph ()    
Max Wind Speed 13 mph    
Max Gust Speed -    
Averages and records for this station are not official NWS values.
T = Trace of Precipitation, MM = Missing Value Source: Averaged Metar Reports

Daily Weather History Graph

Daily Weather History Graph

Search for Another Location

Airport or City:

Trip Planner

Search our weather history database for the weather conditions in past years. The results will help you decide how hot, cold, wet, or windy it might be!

Date:

Astronomy

Jun. 13, 2013 Rise Set
Actual Time 5:10 AM PDT 9:17 PM PDT
Civil Twilight 4:28 AM PDT 9:59 PM PDT
Nautical Twilight 3:29 AM PDT 10:58 PM PDT
Astronomical Twilight 1:32 AM PDT 12:59 AM PDT
Moon 10:13 AM PDT (6/13) No Moon Set
Length of Visible Light 17h 30m
Length of Day
16h 06m
Waxing Crescent, 22% of the Moon is Illuminated
Jun 13
Waxing Crescent
Jun 16
First Quarter
Jun 23
Full
Jun 29
Last Quarter
Jul 8
New

Hourly Weather History & Observations

Time (PDT) Temp. Dew Point Humidity Pressure Visibility Wind Dir Wind Speed Gust Speed Precip Events Conditions
12:00 AM 51.8 °F 46.4 °F 82% 30.15 in 30.0 mi WSW 5.8 mph - N/A   Mostly Cloudy
1:00 AM 51.8 °F 46.4 °F 82% 30.15 in 30.0 mi WNW 6.9 mph - N/A   Mostly Cloudy
2:00 AM 51.8 °F 44.6 °F 76% 30.15 in 30.0 mi WNW 11.5 mph - N/A   Mostly Cloudy
3:00 AM 50.0 °F 44.6 °F 82% 30.16 in 30.0 mi WNW 11.5 mph - N/A   Mostly Cloudy
4:00 AM 50.0 °F 44.6 °F 82% 30.16 in 30.0 mi WNW 9.2 mph - N/A   Mostly Cloudy
5:00 AM 49 °F 44 °F 76% 30.17 in 28 mi WNW 10.4 mph - -   Scattered Clouds
5:00 AM 50.0 °F 44.6 °F 82% 30.17 in 30.0 mi WNW 9.2 mph - N/A   Partly Cloudy
6:00 AM 50.0 °F 44.6 °F 82% 30.17 in 30.0 mi WNW 11.5 mph - N/A   Scattered Clouds
7:00 AM 50.0 °F 44.6 °F 82% 30.17 in 30.0 mi WNW 8.1 mph - N/A   Scattered Clouds
8:00 AM 53.6 °F 46.4 °F 77% 30.18 in 30.0 mi West 5.8 mph - N/A   Partly Cloudy
9:00 AM 57.2 °F 46.4 °F 67% 30.18 in 30.0 mi WSW 2.3 mph - N/A   Partly Cloudy
10:00 AM 60.8 °F 48.2 °F 63% 30.18 in 30.0 mi NNW 3.5 mph - N/A   Partly Cloudy
11:00 AM 59 °F 47 °F 55% 30.19 in 28 mi North 3.5 mph - -   Scattered Clouds
11:00 AM 59.0 °F 46.4 °F 63% 30.19 in 30.0 mi North 3.5 mph - N/A   Partly Cloudy
12:00 PM 62.6 °F 48.2 °F 59% 30.19 in 30.0 mi East 8.1 mph - N/A   Partly Cloudy
1:00 PM 64.4 °F 48.2 °F 56% 30.19 in 30.0 mi ESE 8.1 mph - N/A   Partly Cloudy
2:00 PM 64.4 °F 48.2 °F 56% 30.18 in 30.0 mi East 10.4 mph - N/A   Partly Cloudy
3:00 PM 66.2 °F 46.4 °F 49% 30.17 in 30.0 mi ESE 11.5 mph - N/A   Partly Cloudy
4:00 PM 68.0 °F 46.4 °F 46% 30.16 in 30.0 mi ESE 9.2 mph - N/A   Partly Cloudy
5:00 PM 66 °F 47 °F 39% 30.15 in 28 mi SE 6.9 mph - -   Scattered Clouds
5:00 PM 66.2 °F 46.4 °F 49% 30.15 in 30.0 mi SE 6.9 mph - N/A   Scattered Clouds
6:00 PM 62.6 °F 46.4 °F 55% 30.17 in 30.0 mi WNW 5.8 mph - N/A   Mostly Cloudy
7:00 PM 62.6 °F 48.2 °F 59% 30.17 in 30.0 mi WNW 5.8 mph - N/A Rain Light Rain Showers
7:26 PM 62.6 °F - N/A% - 30.0 mi West 6.9 mph - N/A   Scattered Clouds
8:00 PM 60.8 °F 48.2 °F 63% 30.17 in 30.0 mi WNW 6.9 mph - N/A   Scattered Clouds
9:00 PM 60.8 °F 46.4 °F 59% 30.17 in 30.0 mi West 10.4 mph - N/A   Mostly Cloudy
10:00 PM 59.0 °F 44.6 °F 59% 30.19 in 30.0 mi West 12.7 mph - N/A   Mostly Cloudy
11:00 PM 58 °F 45 °F 51% 30.19 in 28 mi West 12.7 mph - -   Partly Cloudy
11:00 PM 57.2 °F 44.6 °F 63% 30.19 in 30.0 mi West 12.7 mph - N/A   Mostly Cloudy